User: anonymous
Location: Unspecified
(0.0000°N, 0.0000°E)
Time: 15:39:34
(UTC+00:00)
Language:

Optus B1 - Orbit

View from above orbital plane
View from above orbital plane
View from above satellite
View from above satellite

Ground track
Ground track

The orbit data is extracted from the following two-line orbital elements,

1 22087U 92054A   14257.48912434 -.00000164  00000-0  00000+0 0  9826
2 22087 007.0553 054.7524 0010476 047.8916 354.7045 00.99204341 92103
Epoch (UTC): 14 September 2014 11:44:20
Eccentricity: 0.0010476
inclination: 7.0553°
perigee height: 36043 km
apogee height: 36132 km
right ascension of ascending node: 54.7524°
argument of perigee: 47.8916°
revolutions per day: 0.99204341
mean anomaly at epoch: 354.7045°
orbit number at epoch: 9210

The dashed part of the orbit path shows where the satellite is in the earth's shadow,  

DLR